SCP
0 0 0 0 0 0 0 0 0 0 0 0 0 0 0 0 0 0 0 0 0 0 -0 -0 -0 -0 -0 -0 -0 -0 -0 -0 0 0 0 0 0 0
0 0 0 0 0 0 0 0 0 0 0 0 0 0 0 0 0 0 0 0 0 0 0 -0 -0 -0 -0 -0 -0 -0 -0 0 0 0 0 0 0 0
0 0 0 0 0 0 0 0 0 0 0 0 0 0 0 0 0 0 0 0 0 0 0 -0 -0 -0 -0 -0 0 0 0 0 0 0 0 0 0 0
0 0 0 0 0 0 0 0 0 0 0 0 0 0 0 0 0 0 0 0 0 0 0 -0 -0 -0 0 0 0 0 0 0 0 0 0 0 0 0
0 0 0 0 0 0 0 0 0 0 0 0 0 0 0 0 0 0 0 0 0 0 0 0 0 0 0 0 0 0 0 0 0 0 0 -0 -0 -0
0 0 0 0 0 0 0 0 0 0 0 0 0 0 0 0 0 0 0 0 0 0 0 0 0 0 0 0 0 0 0 0 0 0 0 0 0 0
0 0 0 0 0 0 0 0 0 0 0 0 0 0 0 0 0 0 0 0 0 0 0 0 0 0 0 0 0 0 0 0 0 0 0 0 0 0
0 0 0 0 0 0 0 0 0 0 0 0 0 0 0 0 0 0 0 0 0 0 0 0 0 0 0 0 0 0 0 0 -0 -0 0 0 0 0
0 0 0 0 0 0 0 0 0 0 0 0 0 0 0 0 0 0 0 0 0 0 0 0 0 0 0 0 0 0 0 0 -0 -0 0 0 0 0
0 0 0 0 0 0 0 0 0 0 0 0 0 0 0 0 0 0 0 0 0 0 0 0 0 0 0 0 0 0 0 0 0 0 0 0 0 0
0 0 0 0 0 0 0 0 0 0 0 0 0 0 0 0 0 0 0 0 0 0 0 0 0 0 0 0 0 0 0 0 0 0 0 0 0 0
0 0 0 0 0 0 0 0 0 0 0 0 0 0 0 0 0 0 0 0 0 0 0 0 0 0 0 0 0 0 0 0 0 0 0 0 0 0
0 0 0 0 0 0 0 0 0 0 0 0 0 0 0 0 0 0 0 0 0 0 0 0 0 0 0 0 0 0 0 0 0 0 0 0 0 0
0 0 0 0 0 0 0 0 0 0 0 0 0 0 0 0 0 0 0 0 0 0 0 0 0 0 0 0 0 0 0 0 0 0 0 0 0 0
0 0 0 0 0 0 0 0 0 0 0 0 0 0 0 0 0 0 0 0 0 0 0 0 0 0 0 0 0 0 -0 0 0 0 0 0 0 0
0 0 0 0 0 0 0 0 0 0 0 0 0 0 0 0 0 0 0 0 0 0 0 0 0 0 0 0 0 0 0 0 0 0 0 0 0 0
0 0 0 0 0 0 0 0 0 0 0 0 0 0 0 0 0 0 0 0 0 0 0 0 0 0 0 0 0 0 0 0 0 0 0 0 0 0
0 0 0 0 0 0 0 0 0 0 0 0 0 0 0 0 0 0 0 0 0 0 0 0 0 0 0 0 0 0 0 0 0 0 0 0 0 0
0 0 0 0 0 0 0 0 0 0 0 0 0 0 0 0 0 0 0 0 0 0 0 0 0 0 0 0 0 0 0 0 0 0 0 0 0 0
0 0 0 0 0 0 0 0 0 0 0 0 0 0 0 0 0 0 0 0 0 0 0 0 0 0 0 0 0 0 0 0 0 0 0 0 0 0
0 0 0 0 0 0 0 0 0 0 0 0 0 0 0 0 0 0 0 0 0 0 0 0 0 0 0 0 0 0 0 0 0 0 0 0 0 0
0 0 0 0 0 0 0 0 0 0 0 0 0 0 0 0 0 0 0 0 0 0 0 0 0 0 0 0 0 0 0 0 0 0 0 0 0 0
0 0 0 0 0 0 0 0 0 0 0 0 0 0 0 0 0 0 0 0 0 0 0 0 0 0 0 0 0 0 0 0 0 0 0 0 0 0
Wind_Speed
5 7 5 4 5 4 1 0 2 2 3 3 2 2 2 4 4 3 4 8 12 13 14 15 17 18 17 16 15 14 13 14 14 14 14 15 15 15
6 6 5 4 4 3 2 2 3 3 3 2 2 1 2 5 5 5 5 9 11 12 11 11 12 13 13 13 13 12 12 13 13 14 13 12 12 13
4 4 5 5 3 3 3 3 3 3 5 5 3 2 2 4 5 5 6 5 7 11 11 11 11 11 12 12 12 12 11 11 12 12 12 12 13 13
4 6 7 6 6 4 4 4 4 4 4 6 5 3 4 5 6 6 6 7 7 12 13 13 13 13 13 13 13 12 12 12 12 11 12 13 13 14
4 5 6 7 7 6 5 4 4 4 4 4 5 2 2 4 5 4 4 3 5 10 14 14 15 15 15 14 14 13 13 13 13 13 13 13 13 13
6 5 5 6 6 7 6 6 5 4 4 4 4 2 2 4 4 3 2 1 1 1 4 8 12 15 15 15 15 15 15 15 14 14 14 14 13 13
5 5 5 5 5 5 5 6 7 6 5 4 3 2 1 3 3 3 2 0 1 1 1 3 5 6 8 12 15 16 15 14 14 14 14 13 13 14
4 3 4 7 8 7 4 6 8 6 6 5 4 4 5 3 2 2 2 1 0 2 2 2 2 2 4 5 10 14 14 13 13 14 14 15 15 15
7 6 7 8 10 9 5 1 3 7 7 5 6 6 5 4 2 2 2 2 1 2 2 1 2 3 2 4 4 2 5 7 10 13 14 15 15 15
8 8 7 8 11 11 5 5 5 5 6 5 5 4 4 3 3 1 2 2 1 0 1 1 0 1 1 2 1 1 3 4 5 7 10 12 13 12
7 8 8 9 14 16 10 7 5 3 2 4 4 3 2 2 2 1 1 0 0 1 0 1 1 1 3 3 2 3 4 5 5 6 8 9 9 9
4 7 12 11 13 14 8 7 7 7 8 4 2 4 4 2 0 2 2 2 1 0 1 0 0 0 1 3 5 4 4 4 4 5 6 7 9 4
4 6 7 12 12 13 9 5 5 7 8 6 1 1 2 3 3 2 1 0 1 0 1 0 0 1 1 1 3 2 3 4 4 4 5 6 6 2
6 6 6 11 11 11 8 11 14 11 5 5 4 3 3 2 1 2 3 2 2 2 3 2 0 1 1 1 2 1 1 1 2 2 2 4 4 2
4 4 6 9 9 7 9 12 10 6 5 5 4 4 2 1 2 1 3 3 2 1 3 3 2 2 2 2 2 2 2 2 2 2 2 2 2 3
4 5 6 6 6 5 6 6 5 5 5 4 3 3 4 3 2 2 1 1 2 1 1 2 3 3 1 3 4 4 3 3 2 2 1 1 3 4
7 4 3 3 3 3 4 3 4 5 6 6 5 4 4 3 3 3 2 3 1 2 2 0 1 2 3 3 3 2 2 2 2 1 2 4 5 5
6 5 5 4 3 2 2 3 3 3 3 4 5 6 6 5 3 3 3 4 4 2 2 3 1 0 1 3 5 3 3 2 1 1 1 4 4 3
4 6 7 5 2 1 1 2 3 3 3 4 4 4 5 6 6 4 3 4 4 4 3 1 2 2 1 1 2 3 2 2 2 2 2 3 4 5
6 7 5 3 2 2 3 3 4 4 4 5 5 4 4 5 6 6 4 3 4 4 3 2 2 2 2 3 3 1 1 1 1 1 2 3 3 6
3 5 6 6 6 5 5 5 5 5 5 6 6 6 5 4 5 6 6 5 3 2 3 3 4 6 3 1 2 3 2 1 3 3 2 2 1 2
5 5 5 5 4 5 5 5 5 5 6 6 5 6 6 6 7 8 8 7 6 4 3 1 2 3 2 1 1 2 3 3 2 3 3 4 2 2
4 4 4 4 4 3 4 5 6 6 7 7 7 6 7 7 6 6 7 8 9 9 7 5 2 2 2 3 4 4 2 3 3 3 2 6 7 6
Wind_Direction
281 273 265 268 271 276 287 237 234 264 268 237 234 212 120 99 129 109 118 129 134 139 145 152 158 162 168 179 189 193 194 199 205 209 216 218 220 225
266 268 275 276 289 293 280 247 221 230 262 257 233 278 126 129 135 127 125 137 147 153 159 164 169 169 173 182 190 195 200 205 208 210 212 214 217 222
293 323 331 326 328 327 316 290 254 226 250 270 248 235 158 140 149 146 147 157 158 162 166 173 181 184 186 192 199 205 209 213 215 214 213 214 218 222
7 9 360 355 354 341 323 299 276 243 240 269 278 234 193 166 168 172 167 176 169 177 182 189 195 200 203 204 207 212 217 221 224 224 222 222 223 227
31 35 22 13 6 353 335 327 303 290 259 260 274 251 188 171 174 191 199 178 177 180 194 203 207 209 211 211 211 215 220 224 227 228 229 231 232 235
60 58 41 32 11 352 359 359 347 344 323 287 275 260 199 173 168 182 211 246 235 135 198 215 215 215 219 215 213 215 220 223 226 229 231 232 235 238
70 67 56 40 20 7 14 7 8 12 360 337 310 300 240 159 169 161 173 293 326 60 21 251 209 211 219 222 220 219 219 221 224 229 232 233 235 237
70 82 75 35 6 357 4 29 25 20 9 6 8 22 30 41 73 100 128 135 268 30 64 318 310 241 229 219 219 214 217 222 225 228 229 228 230 233
42 39 40 32 13 351 333 211 46 45 36 34 41 34 35 27 53 85 88 95 92 8 41 359 1 328 20 48 55 144 190 216 228 229 229 227 224 224
43 35 36 26 10 354 21 78 72 41 32 49 55 53 45 27 34 67 111 125 141 176 100 118 52 269 132 94 114 191 204 214 221 220 220 219 217 217
77 53 37 30 12 10 18 24 33 37 61 77 83 97 99 59 10 25 95 74 102 131 70 160 133 177 191 174 174 223 230 220 208 199 193 191 191 192
117 89 53 33 18 13 10 13 10 348 337 313 216 207 204 194 58 27 27 16 0 48 95 37 84 138 227 173 164 188 207 214 202 197 186 175 170 176
37 57 34 16 13 3 357 5 341 316 302 306 266 197 168 166 183 166 127 56 340 12 114 159 247 161 225 160 134 169 186 183 194 198 193 175 173 173
39 33 23 11 2 349 344 340 341 339 331 358 20 23 44 52 80 133 165 183 193 185 178 169 261 262 196 153 117 107 316 257 214 194 169 153 153 143
40 24 5 5 357 354 351 343 341 337 343 357 359 351 355 346 306 222 192 199 199 152 147 169 188 205 169 135 133 166 191 221 226 215 185 176 157 138
4 346 338 345 345 339 345 351 351 342 331 318 326 327 329 330 328 342 333 229 191 144 96 93 81 87 126 174 168 175 187 178 185 199 166 77 96 101
338 321 317 318 324 326 324 331 345 352 353 348 346 332 324 334 340 340 334 321 335 155 178 273 77 92 86 49 95 131 130 116 124 129 128 111 101 100
327 303 295 274 269 291 319 321 324 337 343 345 347 346 340 337 332 341 350 337 329 318 187 182 187 359 48 38 34 42 65 75 59 31 106 130 121 108
273 276 279 278 276 280 285 301 312 319 320 320 325 332 338 337 333 335 339 323 316 316 314 218 195 202 222 210 353 12 75 61 13 7 37 103 137 151
248 261 277 307 346 4 5 358 350 347 341 331 324 325 326 322 322 323 322 312 296 297 316 352 338 300 249 191 172 201 209 145 95 46 30 28 82 106
346 19 26 24 18 11 10 7 359 352 345 340 335 331 325 324 331 337 335 336 332 321 321 320 312 309 295 159 153 167 169 148 139 133 104 47 10 152
23 20 19 10 7 9 9 3 355 350 343 340 350 354 355 360 358 359 359 354 352 350 343 331 325 321 345 18 311 202 175 172 139 124 143 160 148 130
25 10 353 348 7 14 12 3 356 360 4 0 358 358 357 353 351 359 1 2 9 5 359 357 10 22 27 41 24 353 319 182 176 179 216 211 200 192